Location: Balaclava NSW 2575, Australia
(34.4510°S, 150.4953°E)
Time: 15:43:50
(UTC+10:00)

A-11 Canister half - Pass Details

Date: 15 June 2021
Orbit: 1513 x 1687 km, 47.2° (Epoch: 26 July)

Event Time Altitude Azimuth Distance (km) Brightness Sun altitude
Rises 22:04:43 0° 240° (WSW) 4,814 12.0 -62.8°
Reaches altitude 10° 22:07:58 10° 234° (SW) 3,853 11.3 -63.5°
Enters shadow 22:08:21 11° 233° (SW) 3,747 11.2 -63.5°
